Time,TemperatureF,DewpointF,PressureIn,WindDirection,WindDirectionDegrees,WindSpeedMPH,WindSpeedGustMPH,Humidity,HourlyPrecipIn,Conditions,Clouds,dailyrainin,SoftwareType,DateUTC
2013-08-13 00:02:00,59.0,49.0,-100.00,North,350,4.0,7.0,68,0.00,,,0.02,,2013-08-13 08:02:00,
2013-08-13 00:11:00,59.0,49.0,-100.00,North,350,4.0,7.0,68,0.00,,,0.02,,2013-08-13 08:11:00,
2013-08-13 00:21:00,58.0,49.0,-100.00,NW,325,3.0,7.0,71,0.00,,,0.02,,2013-08-13 08:21:00,
2013-08-13 00:31:00,58.0,49.0,-100.00,NW,325,3.0,7.0,71,0.00,,,0.02,,2013-08-13 08:31:00,
2013-08-13 00:42:00,58.0,49.0,-100.00,NW,325,3.0,7.0,71,0.00,,,0.02,,2013-08-13 08:42:00,
2013-08-13 00:51:00,58.0,49.0,-100.00,NNW,345,4.0,9.0,72,0.00,,,0.02,,2013-08-13 08:51:00,
2013-08-13 01:01:00,58.0,49.0,-100.00,NNW,345,4.0,9.0,72,0.00,,,0.02,,2013-08-13 09:01:00,
2013-08-13 01:11:00,58.0,49.0,-100.00,NNW,345,4.0,9.0,72,0.00,,,0.02,,2013-08-13 09:11:00,
2013-08-13 01:21:00,58.0,50.0,-100.00,NW,325,4.0,7.0,73,0.00,,,0.02,,2013-08-13 09:21:00,
2013-08-13 01:32:00,58.0,50.0,-100.00,NW,325,4.0,7.0,73,0.00,,,0.02,,2013-08-13 09:32:00,
2013-08-13 01:43:00,58.0,50.0,-100.00,NW,325,4.0,7.0,73,0.00,,,0.02,,2013-08-13 09:43:00,
2013-08-13 01:53:00,58.0,50.0,-100.00,North,350,4.0,7.0,74,0.00,,,0.02,,2013-08-13 09:53:00,
2013-08-13 02:03:00,58.0,50.0,-100.00,North,350,4.0,7.0,74,0.00,,,0.02,,2013-08-13 10:03:00,
2013-08-13 02:12:00,58.0,50.0,-100.00,North,350,4.0,7.0,74,0.00,,,0.02,,2013-08-13 10:12:00,
2013-08-13 02:23:00,57.0,50.0,-100.00,North,355,4.0,6.0,77,0.00,,,0.02,,2013-08-13 10:23:00,
2013-08-13 02:32:00,57.0,50.0,-100.00,North,355,4.0,6.0,77,0.00,,,0.02,,2013-08-13 10:32:00,
2013-08-13 02:42:00,57.0,50.0,-100.00,North,355,4.0,6.0,77,0.00,,,0.02,,2013-08-13 10:42:00,
2013-08-13 02:52:00,57.0,51.0,-100.00,NNW,345,2.0,4.0,78,0.00,,,0.02,,2013-08-13 10:52:00,
2013-08-13 03:02:00,57.0,51.0,-100.00,NNW,345,2.0,4.0,78,0.00,,,0.02,,2013-08-13 11:02:00,
2013-08-13 03:11:00,57.0,51.0,-100.00,NNW,345,2.0,4.0,78,0.00,,,0.02,,2013-08-13 11:11:00,
2013-08-13 03:22:00,57.0,50.0,-100.00,North,355,3.0,5.0,78,0.00,,,0.02,,2013-08-13 11:22:00,
2013-08-13 03:31:00,57.0,50.0,-100.00,North,355,3.0,5.0,78,0.00,,,0.02,,2013-08-13 11:31:00,
2013-08-13 03:42:00,57.0,50.0,-100.00,North,355,3.0,5.0,78,0.00,,,0.02,,2013-08-13 11:42:00,
2013-08-13 03:52:00,56.0,50.0,-100.00,NNW,335,3.0,5.0,79,0.00,,,0.02,,2013-08-13 11:52:00,
2013-08-13 04:01:00,56.0,50.0,-100.00,NNW,335,3.0,5.0,79,0.00,,,0.02,,2013-08-13 12:01:00,
2013-08-13 04:12:00,56.0,50.0,-100.00,NNW,335,3.0,5.0,79,0.00,,,0.02,,2013-08-13 12:12:00,
2013-08-13 04:21:00,56.0,50.0,-100.00,North,0,2.0,4.0,80,0.00,,,0.01,,2013-08-13 12:21:00,
2013-08-13 04:31:00,56.0,50.0,-100.00,North,0,2.0,4.0,80,0.00,,,0.01,,2013-08-13 12:31:00,
2013-08-13 04:42:00,56.0,50.0,-100.00,North,0,2.0,4.0,80,0.00,,,0.01,,2013-08-13 12:42:00,
2013-08-13 04:51:00,56.0,51.0,-100.00,North,355,2.0,3.0,82,0.00,,,0.00,,2013-08-13 12:51:00,
2013-08-13 05:01:00,56.0,51.0,-100.00,North,355,2.0,3.0,82,0.00,,,0.00,,2013-08-13 13:01:00,
2013-08-13 05:11:00,56.0,51.0,-100.00,North,355,2.0,3.0,82,0.00,,,0.00,,2013-08-13 13:11:00,
2013-08-13 05:21:00,58.0,51.0,-100.00,NNE,30,2.0,4.0,76,0.00,,,0.00,,2013-08-13 13:21:00,
2013-08-13 05:32:00,58.0,51.0,-100.00,NNE,30,2.0,4.0,76,0.00,,,0.00,,2013-08-13 13:32:00,
2013-08-13 05:42:00,58.0,51.0,-100.00,NNE,30,2.0,4.0,76,0.00,,,0.00,,2013-08-13 13:42:00,
2013-08-13 06:21:00,57.0,50.0,-100.00,North,5,1.0,2.0,77,0.00,,,0.00,,2013-08-13 14:21:00,
2013-08-13 06:31:00,57.0,50.0,-100.00,North,5,1.0,2.0,77,0.00,,,0.00,,2013-08-13 14:31:00,
2013-08-13 06:42:00,57.0,50.0,-100.00,North,5,1.0,2.0,77,0.00,,,0.00,,2013-08-13 14:42:00,
2013-08-13 06:52:00,56.0,50.0,-100.00,East,80,1.0,3.0,80,0.00,,,0.00,,2013-08-13 14:52:00,
2013-08-13 07:02:00,56.0,50.0,-100.00,East,80,1.0,3.0,80,0.00,,,0.00,,2013-08-13 15:02:00,
2013-08-13 07:11:00,56.0,50.0,-100.00,East,80,1.0,3.0,80,0.00,,,0.00,,2013-08-13 15:11:00,
2013-08-13 07:21:00,56.0,50.0,-100.00,SE,135,0.0,2.0,81,0.00,,,0.00,,2013-08-13 15:21:00,
2013-08-13 07:35:00,56.0,50.0,-100.00,SE,135,0.0,2.0,81,0.00,,,0.00,,2013-08-13 15:35:00,
2013-08-13 07:44:00,56.0,50.0,-100.00,SE,135,0.0,2.0,81,0.00,,,0.00,,2013-08-13 15:44:00,
2013-08-13 07:54:00,56.0,51.0,-100.00,ESE,110,1.0,4.0,83,0.00,,,0.00,,2013-08-13 15:54:00,
2013-08-13 08:03:00,56.0,51.0,-100.00,ESE,110,1.0,4.0,83,0.00,,,0.00,,2013-08-13 16:03:00,
2013-08-13 08:13:00,56.0,51.0,-100.00,ESE,110,1.0,4.0,83,0.00,,,0.00,,2013-08-13 16:13:00,
2013-08-13 08:23:00,55.0,51.0,-100.00,SE,145,2.0,4.0,86,0.00,,,0.00,,2013-08-13 16:23:00,
2013-08-13 08:36:00,55.0,51.0,-100.00,SE,145,2.0,4.0,86,0.00,,,0.00,,2013-08-13 16:36:00,
2013-08-13 08:45:00,55.0,51.0,-100.00,SE,145,2.0,4.0,86,0.00,,,0.00,,2013-08-13 16:45:00,
2013-08-13 08:54:00,56.0,52.0,-100.00,NE,45,1.0,2.0,86,0.00,,,0.00,,2013-08-13 16:54:00,
2013-08-13 09:05:00,56.0,52.0,-100.00,NE,45,1.0,2.0,86,0.00,,,0.00,,2013-08-13 17:05:00,
2013-08-13 09:16:00,56.0,52.0,-100.00,NE,45,1.0,2.0,86,0.00,,,0.00,,2013-08-13 17:16:00,
2013-08-13 09:27:00,58.0,52.0,-100.00,NE,40,0.0,2.0,80,0.00,,,0.00,,2013-08-13 17:27:00,
2013-08-13 09:37:00,58.0,52.0,-100.00,NE,40,0.0,2.0,80,0.00,,,0.00,,2013-08-13 17:37:00,
2013-08-13 09:45:00,-999.0,-99.9,-100.00,NE,40,0.0,2.0,80,0.00,,,0.00,,2013-08-13 17:45:00,
2013-08-13 09:56:00,59.0,51.0,-100.00,East,85,0.0,3.0,76,0.00,,,0.00,,2013-08-13 17:56:00,
2013-08-13 10:05:00,59.0,51.0,-100.00,East,85,0.0,3.0,76,0.00,,,0.00,,2013-08-13 18:05:00,
2013-08-13 10:15:00,59.0,51.0,-100.00,East,85,0.0,3.0,76,0.00,,,0.00,,2013-08-13 18:15:00,
2013-08-13 10:25:00,62.0,51.0,-100.00,North,0,1.0,2.0,68,0.00,,,0.00,,2013-08-13 18:25:00,
2013-08-13 10:37:00,62.0,51.0,-100.00,North,0,1.0,2.0,68,0.00,,,0.00,,2013-08-13 18:37:00,
2013-08-13 10:44:00,62.0,51.0,-100.00,North,0,1.0,2.0,68,0.00,,,0.00,,2013-08-13 18:44:00,
2013-08-13 10:56:00,62.0,51.0,-100.00,NNE,20,0.0,3.0,66,0.00,,,0.00,,2013-08-13 18:56:00,
2013-08-13 11:04:00,62.0,51.0,-100.00,NNE,20,0.0,3.0,66,0.00,,,0.00,,2013-08-13 19:04:00,
2013-08-13 11:14:00,62.0,51.0,-100.00,NNE,20,0.0,3.0,66,0.00,,,0.00,,2013-08-13 19:14:00,
2013-08-13 11:24:00,63.0,51.0,-100.00,North,0,1.0,2.0,64,0.00,,,0.00,,2013-08-13 19:24:00,
2013-08-13 11:36:00,63.0,51.0,-100.00,North,0,1.0,2.0,64,0.00,,,0.00,,2013-08-13 19:36:00,
2013-08-13 11:44:00,63.0,51.0,-100.00,North,0,1.0,2.0,64,0.00,,,0.00,,2013-08-13 19:44:00,
2013-08-13 11:55:00,66.0,51.0,-100.00,NW,315,1.0,3.0,58,0.00,,,0.00,,2013-08-13 19:55:00,
2013-08-13 12:04:00,66.0,51.0,-100.00,NW,315,1.0,3.0,58,0.00,,,0.00,,2013-08-13 20:04:00,
2013-08-13 12:15:00,66.0,51.0,-100.00,NW,315,1.0,3.0,58,0.00,,,0.00,,2013-08-13 20:15:00,
2013-08-13 12:22:00,67.0,50.0,-100.00,SW,225,1.0,3.0,54,0.00,,,0.00,,2013-08-13 20:22:00,
2013-08-13 12:32:00,67.0,50.0,-100.00,SW,225,1.0,3.0,54,0.00,,,0.00,,2013-08-13 20:32:00,
2013-08-13 12:45:00,67.0,50.0,-100.00,SW,225,1.0,3.0,54,0.00,,,0.00,,2013-08-13 20:45:00,
2013-08-13 12:53:00,68.0,50.0,-100.00,SSW,210,2.0,5.0,52,0.00,,,0.00,,2013-08-13 20:53:00,
2013-08-13 13:01:00,68.0,50.0,-100.00,SSW,210,2.0,5.0,52,0.00,,,0.00,,2013-08-13 21:01:00,
2013-08-13 13:11:00,68.0,50.0,-100.00,SSW,210,2.0,5.0,52,0.00,,,0.00,,2013-08-13 21:11:00,
2013-08-13 13:24:00,69.0,50.0,-100.00,South,175,1.0,4.0,51,0.00,,,0.00,,2013-08-13 21:24:00,
2013-08-13 13:34:00,69.0,50.0,-100.00,South,175,1.0,4.0,51,0.00,,,0.00,,2013-08-13 21:34:00,
2013-08-13 13:46:00,69.0,50.0,-100.00,South,175,1.0,4.0,51,0.00,,,0.00,,2013-08-13 21:46:00,
2013-08-13 13:50:00,69.0,50.0,-100.00,North,355,1.0,4.0,51,0.00,,,0.00,,2013-08-13 21:50:00,
2013-08-13 13:54:00,68.0,50.0,-100.00,SW,220,0.0,4.0,51,0.00,,,0.00,,2013-08-13 21:54:00,
2013-08-13 14:03:00,68.0,50.0,-100.00,SW,220,0.0,4.0,51,0.00,,,0.00,,2013-08-13 22:03:00,
2013-08-13 14:13:00,68.0,50.0,-100.00,SW,220,0.0,4.0,51,0.00,,,0.00,,2013-08-13 22:13:00,
2013-08-13 14:22:00,69.0,50.0,-100.00,North,355,1.0,4.0,51,0.00,,,0.00,,2013-08-13 22:22:00,
2013-08-13 14:35:00,69.0,50.0,-100.00,North,355,1.0,4.0,51,0.00,,,0.00,,2013-08-13 22:35:00,
2013-08-13 15:57:00,73.0,50.0,-100.00,NW,310,1.0,4.0,44,0.00,,,0.00,,2013-08-13 23:57:00,
2013-08-13 16:03:00,73.0,50.0,-100.00,NW,310,1.0,4.0,44,0.00,,,0.00,,2013-08-14 00:03:00,
2013-08-13 16:11:00,73.0,50.0,-100.00,NW,310,1.0,4.0,44,0.00,,,0.00,,2013-08-14 00:11:00,
2013-08-13 16:21:00,73.0,50.0,-100.00,WNW,295,2.0,6.0,44,0.00,,,0.00,,2013-08-14 00:21:00,
2013-08-13 16:32:00,73.0,50.0,-100.00,WNW,295,2.0,6.0,44,0.00,,,0.00,,2013-08-14 00:32:00,
2013-08-13 16:42:00,73.0,50.0,-100.00,WNW,295,2.0,6.0,44,0.00,,,0.00,,2013-08-14 00:42:00,
2013-08-13 16:52:00,74.0,50.0,-100.00,WNW,295,3.0,9.0,42,0.00,,,0.00,,2013-08-14 00:52:00,
2013-08-13 17:01:00,74.0,50.0,-100.00,WNW,295,3.0,9.0,42,0.00,,,0.00,,2013-08-14 01:01:00,
2013-08-13 17:11:00,74.0,50.0,-100.00,WNW,295,3.0,9.0,42,0.00,,,0.00,,2013-08-14 01:11:00,
2013-08-13 17:21:00,75.0,50.0,-100.00,NNW,335,2.0,6.0,41,0.00,,,0.00,,2013-08-14 01:21:00,
2013-08-13 17:32:00,75.0,50.0,-100.00,NNW,335,2.0,6.0,41,0.00,,,0.00,,2013-08-14 01:32:00,
2013-08-13 17:42:00,75.0,50.0,-100.00,NNW,335,2.0,6.0,41,0.00,,,0.00,,2013-08-14 01:42:00,
2013-08-13 17:52:00,75.0,50.0,-100.00,NNW,340,1.0,4.0,41,0.00,,,0.00,,2013-08-14 01:52:00,
2013-08-13 18:02:00,75.0,50.0,-100.00,NNW,340,1.0,4.0,41,0.00,,,0.00,,2013-08-14 02:02:00,
2013-08-13 18:11:00,75.0,50.0,-100.00,NNW,340,1.0,4.0,41,0.00,,,0.00,,2013-08-14 02:11:00,
2013-08-13 18:21:00,73.0,50.0,-100.00,SSW,200,1.0,6.0,43,0.00,,,0.00,,2013-08-14 02:21:00,
2013-08-13 18:32:00,73.0,50.0,-100.00,SSW,200,1.0,6.0,43,0.00,,,0.00,,2013-08-14 02:32:00,
2013-08-13 18:41:00,73.0,50.0,-100.00,SSW,200,1.0,6.0,43,0.00,,,0.00,,2013-08-14 02:41:00,
2013-08-13 18:51:00,72.0,50.0,-100.00,SW,225,1.0,4.0,44,0.00,,,0.00,,2013-08-14 02:51:00,
2013-08-13 19:01:00,72.0,50.0,-100.00,SW,225,1.0,4.0,44,0.00,,,0.00,,2013-08-14 03:01:00,
2013-08-13 19:11:00,72.0,50.0,-100.00,SW,225,1.0,4.0,44,0.00,,,0.00,,2013-08-14 03:11:00,
2013-08-13 19:22:00,73.0,50.0,-100.00,SSW,210,1.0,4.0,44,0.00,,,0.00,,2013-08-14 03:22:00,
2013-08-13 19:33:00,73.0,50.0,-100.00,SSW,210,1.0,4.0,44,0.00,,,0.00,,2013-08-14 03:33:00,
2013-08-13 19:43:00,73.0,50.0,-100.00,SSW,210,1.0,4.0,44,0.00,,,0.00,,2013-08-14 03:43:00,
2013-08-13 19:53:00,72.0,50.0,-100.00,SW,225,1.0,4.0,45,0.00,,,0.00,,2013-08-14 03:53:00,
2013-08-13 20:03:00,72.0,50.0,-100.00,SW,225,1.0,4.0,45,0.00,,,0.00,,2013-08-14 04:03:00,
2013-08-13 20:12:00,72.0,50.0,-100.00,SW,225,1.0,4.0,45,0.00,,,0.00,,2013-08-14 04:12:00,
2013-08-13 20:23:00,72.0,50.0,-100.00,SW,225,1.0,4.0,45,0.00,,,0.00,,2013-08-14 04:23:00,
2013-08-13 20:32:00,72.0,50.0,-100.00,SW,225,1.0,4.0,45,0.00,,,0.00,,2013-08-14 04:32:00,
2013-08-13 20:42:00,72.0,50.0,-100.00,SW,225,1.0,4.0,45,0.00,,,0.00,,2013-08-14 04:42:00,
2013-08-13 20:52:00,73.0,50.0,-100.00,WNW,295,2.0,6.0,43,0.00,,,0.00,,2013-08-14 04:52:00,
2013-08-13 21:02:00,73.0,50.0,-100.00,WNW,295,2.0,6.0,43,0.00,,,0.00,,2013-08-14 05:02:00,
2013-08-13 21:12:00,73.0,50.0,-100.00,WNW,295,2.0,6.0,43,0.00,,,0.00,,2013-08-14 05:12:00,
2013-08-13 21:22:00,71.0,49.0,-100.00,NNW,330,2.0,6.0,45,0.00,,,0.00,,2013-08-14 05:22:00,
2013-08-13 21:31:00,71.0,49.0,-100.00,NNW,330,2.0,6.0,45,0.00,,,0.00,,2013-08-14 05:31:00,
2013-08-13 21:42:00,71.0,49.0,-100.00,NNW,330,2.0,6.0,45,0.00,,,0.00,,2013-08-14 05:42:00,
2013-08-13 21:51:00,71.0,49.0,-100.00,North,0,2.0,6.0,45,0.00,,,0.00,,2013-08-14 05:51:00,
2013-08-13 22:01:00,71.0,49.0,-100.00,North,0,2.0,6.0,45,0.00,,,0.00,,2013-08-14 06:01:00,
2013-08-13 22:11:00,71.0,49.0,-100.00,North,0,2.0,6.0,45,0.00,,,0.00,,2013-08-14 06:11:00,
2013-08-13 22:20:00,67.0,49.0,-100.00,North,355,3.0,6.0,53,0.00,,,0.00,,2013-08-14 06:20:00,
2013-08-13 22:21:00,68.0,49.0,-100.00,NNW,330,2.0,4.0,50,0.00,,,0.00,,2013-08-14 06:21:00,
2013-08-13 22:31:00,68.0,49.0,-100.00,NNW,330,2.0,4.0,50,0.00,,,0.00,,2013-08-14 06:31:00,
2013-08-13 22:42:00,68.0,49.0,-100.00,NNW,330,2.0,4.0,50,0.00,,,0.00,,2013-08-14 06:42:00,
2013-08-13 22:52:00,67.0,49.0,-100.00,North,355,3.0,6.0,53,0.00,,,0.00,,2013-08-14 06:52:00,
2013-08-13 23:01:00,67.0,49.0,-100.00,North,355,3.0,6.0,53,0.00,,,0.00,,2013-08-14 07:01:00,
2013-08-13 23:11:00,67.0,49.0,-100.00,North,355,3.0,6.0,53,0.00,,,0.00,,2013-08-14 07:11:00,